FW0192 Weather Reports


Display with metric or nautical units.
time (UTC)temp
F
wind
direction
speed
MPH
gust
MPH
rain 1hr
in
rain 24hr
in
rain mn
in
humidity
%
barometer
mb
20260906214035 91 38 5.0 9.0 0.00 0.00 0.00 35 1002.6
20260906213534 91 30 3.0 9.0 0.00 0.00 0.00 35 1002.7
20260906213035 91 34 3.0 11.0 0.00 0.00 0.00 36 1002.7
20260906212532 91 104 3.0 11.0 0.00 0.00 0.00 35 1002.9
20260906212032 90 66 2.0 9.0 0.00 0.00 0.00 35 1003.0
20260906211531 90 55 2.0 11.0 0.00 0.00 0.00 36 1003.1
20260906211029 91 74 2.0 7.0 0.00 0.00 0.00 37 1003.3
20260906210529 91 128 1.0 11.0 0.00 0.00 0.00 37 1003.4
20260906210029 91 100 5.0 14.0 0.00 0.00 0.00 37 1003.5
20260906205528 91 66 9.0 14.0 0.00 0.00 0.00 37 1003.5
20260906205031 90 109 1.0 7.0 0.00 0.00 0.00 37 1003.5
20260906204526 90 168 5.0 7.0 0.00 0.00 0.00 38 1003.5
20260906204024 90 55 4.0 9.0 0.00 0.00 0.00 38 1003.6
20260906203523 89 120 0.0 10.0 0.00 0.00 0.00 37 1003.8
20260906203028 89 69 4.0 10.0 0.00 0.00 0.00 38 1003.8
20260906202520 88 126 2.0 8.0 0.00 0.00 0.00 38 1003.7
20260906202021 88 17 4.0 9.0 0.00 0.00 0.00 38 1003.8
20260906201518 88 102 3.0 9.0 0.00 0.00 0.00 38 1003.9
20260906201021 88 42 2.0 5.0 0.00 0.00 0.00 36 1004.0
20260906200516 87 84 0.0 9.0 0.00 0.00 0.00 36 1004.1
20260906200015 87 104 4.0 11.0 0.00 0.00 0.00 38 1004.1
20260906195514 87 52 4.0 11.0 0.00 0.00 0.00 39 1004.1
20260906195015 87 86 5.0 11.0 0.00 0.00 0.00 40 1004.2
20260906194514 87 142 4.0 10.0 0.00 0.00 0.00 38 1004.2
20260906194013 87 96 5.0 10.0 0.00 0.00 0.00 40 1004.2
20260906193513 87 158 4.0 10.0 0.00 0.00 0.00 39 1004.2
20260906193012 86 88 4.0 13.0 0.00 0.00 0.00 41 1004.2
20260906192510 86 55 4.0 13.0 0.00 0.00 0.00 42 1004.3
20260906192009 86 336 6.0 9.0 0.00 0.00 0.00 40 1004.4
20260906191509 86 46 2.0 10.0 0.00 0.00 0.00 41 1004.7
20260906191005 86 360 4.0 11.0 0.00 0.00 0.00 42 1004.7
20260906190505 86 92 6.0 12.0 0.00 0.00 0.00 43 1004.7
20260906190004 85 59 5.0 11.0 0.00 0.00 0.00 46 1004.8
20260906185507 85 91 5.0 10.0 0.00 0.00 0.00 47 1004.9
20260906185002 84 101 4.0 14.0 0.00 0.00 0.00 47 1004.9
20260906184502 84 71 7.0 14.0 0.00 0.00 0.00 48 1005.0
20260906184100 84 86 4.0 12.0 0.00 0.00 0.00 49 1005.0
20260906183601 84 360 4.0 10.0 0.00 0.00 0.00 48 1005.2
20260906183059 83 22 4.0 10.0 0.00 0.00 0.00 50 1005.2
20260906182559 83 65 5.0 10.0 0.00 0.00 0.00 50 1005.4
20260906182100 82 37 4.0 8.0 0.00 0.00 0.00 50 1005.6
20260906181555 82 17 1.0 6.0 0.00 0.00 0.00 52 1005.6
20260906181053 82 29 3.0 6.0 0.00 0.00 0.00 53 1005.8
20260906180552 81 309 1.0 5.0 0.00 0.00 0.00 54 1005.8
20260906180109 81 311 1.0 5.0 0.00 0.00 0.00 55 1005.9
20260906175552 80 318 1.0 6.0 0.00 0.00 0.00 56 1006.0
20260906175048 80 360 3.0 6.0 0.00 0.00 0.00 56 1006.1
20260906174547 79 317 0.0 5.0 0.00 0.00 0.00 58 1006.2
20260906174046 78 319 1.0 5.0 0.00 0.00 0.00 59 1006.4
20260906173549 78 318 1.0 8.0 0.00 0.00 0.00 60 1006.5
20260906173043 78 317 2.0 8.0 0.00 0.00 0.00 60 1006.5
20260906172546 77 332 3.0 8.0 0.00 0.00 0.00 62 1006.5
20260906172042 77 294 4.0 10.0 0.00 0.00 0.00 62 1006.7
20260906171539 77 273 5.0 9.0 0.00 0.00 0.00 63 1006.7
20260906171038 76 265 4.0 9.0 0.00 0.00 0.00 64 1006.7
20260906170539 76 299 3.0 7.0 0.00 0.00 0.00 65 1006.7
20260906170035 75 360 3.0 8.0 0.00 0.00 0.00 66 1006.8
20260906165534 75 312 3.0 8.0 0.00 0.00 0.00 66 1006.8
20260906165035 75 360 5.0 8.0 0.00 0.00 0.00 67 1006.9
20260906164532 74 360 0.0 6.0 0.00 0.00 0.00 67 1007.0
20260906164031 74 326 1.0 5.0 0.00 0.00 0.00 68 1007.1
20260906163530 74 325 2.0 8.0 0.00 0.00 0.00 69 1007.0
20260906163029 73 360 2.0 8.0 0.00 0.00 0.00 71 1007.0
20260906162527 73 323 2.0 8.0 0.00 0.00 0.00 72 1007.1
20260906162025 72 324 4.0 8.0 0.00 0.00 0.00 73 1007.0
20260906161524 71 294 3.0 7.0 0.00 0.00 0.00 75 1007.0
20260906161022 70 293 2.0 8.0 0.00 0.00 0.00 77 1007.1
20260906160521 70 360 3.0 8.0 0.00 0.00 0.00 77 1007.1
20260906160019 70 288 3.0 9.0 0.00 0.00 0.00 78 1007.2
20260906155521 69 360 4.0 9.0 0.00 0.00 0.00 78 1007.2
20260906155018 69 360 4.0 10.0 0.00 0.00 0.00 79 1007.1
20260906154516 68 313 5.0 10.0 0.00 0.00 0.00 80 1007.1
20260906154015 68 306 5.0 10.0 0.00 0.00 0.00 80 1007.1
20260906153515 68 360 4.0 10.0 0.00 0.00 0.00 80 1007.1
20260906153017 68 294 6.0 10.0 0.00 0.00 0.00 81 1007.1
20260906152514 68 311 3.0 9.0 0.00 0.00 0.00 81 1007.2
20260906152013 68 360 3.0 9.0 0.00 0.00 0.00 82 1007.1
20260906151509 67 309 4.0 8.0 0.00 0.00 0.00 82 1007.1
20260906151009 67 360 4.0 9.0 0.00 0.00 0.00 82 1007.2
20260906150509 67 360 3.0 8.0 0.00 0.00 0.00 82 1007.3
20260906150007 67 360 4.0 9.0 0.00 0.00 0.00 83 1007.3
20260906145506 67 360 4.0 9.0 0.00 0.00 0.00 84 1007.3
20260906145006 66 360 5.0 9.0 0.00 0.00 0.00 85 1007.3
20260906144514 66 360 4.0 8.0 0.00 0.00 0.00 85 1007.2
20260906144004 65 327 5.0 9.0 0.00 0.00 0.00 87 1007.2
20260906143503 65 326 5.0 9.0 0.00 0.00 0.00 87 1007.3
20260906143003 65 360 4.0 9.0 0.00 0.00 0.00 88 1007.3
20260906142502 64 313 5.0 9.0 0.00 0.00 0.00 89 1007.2
20260906142100 64 312 5.0 9.0 0.00 0.00 0.00 90 1007.3
20260906141559 64 355 2.0 6.0 0.00 0.00 0.00 90 1007.4
20260906141058 63 355 3.0 6.0 0.00 0.00 0.00 91 1007.2
20260906140557 63 355 4.0 6.0 0.00 0.00 0.00 91 1007.3
20260906140105 63 355 3.0 6.0 0.00 0.00 0.00 92 1007.2
20260906135556 62 351 4.0 6.0 0.00 0.00 0.00 93 1007.2
20260906135055 62 351 4.0 6.0 0.00 0.00 0.00 93 1007.3
20260906134553 62 350 3.0 6.0 0.00 0.00 0.00 93 1007.1
20260906134052 61 350 3.0 5.0 0.00 0.00 0.00 94 1007.0
20260906133550 61 349 3.0 5.0 0.00 0.00 0.00 94 1007.1
20260906133056 61 360 2.0 6.0 0.00 0.00 0.00 94 1007.0
20260906132551 61 360 3.0 6.0 0.00 0.00 0.00 94 1007.0
20260906132049 60 360 3.0 6.0 0.00 0.00 0.00 94 1007.1
20260906131605 60 360 3.0 6.0 0.00 0.00 0.00 94 1006.9
20260906131044 60 360 3.0 6.0 0.00 0.00 0.00 94 1006.8
20260906130544 60 360 3.0 6.0 0.00 0.00 0.00 94 1006.7
20260906130045 60 28 3.0 5.0 0.00 0.00 0.00 94 1006.5
20260906125543 59 30 1.0 3.0 0.00 0.00 0.00 93 1006.6
20260906125043 59 30 1.0 3.0 0.00 0.00 0.00 93 1006.6
20260906124540 59 30 2.0 3.0 0.00 0.00 0.00 93 1006.6
20260906124041 59 30 0.0 3.0 0.00 0.00 0.00 93 1006.6
20260906123538 60 30 1.0 3.0 0.00 0.00 0.00 93 1006.7
20260906123038 60 30 1.0 2.0 0.00 0.00 0.00 93 1006.7
20260906122538 60 30 0.0 2.0 0.00 0.00 0.00 93 1006.6
20260906122037 60 30 1.0 3.0 0.00 0.00 0.00 93 1006.6
20260906121537 60 30 0.0 3.0 0.00 0.00 0.00 93 1006.6
20260906121036 60 30 1.0 3.0 0.00 0.00 0.00 92 1006.5
20260906120536 60 30 2.0 3.0 0.00 0.00 0.00 92 1006.5
20260906120036 60 30 1.0 4.0 0.00 0.00 0.00 92 1006.5
20260906115536 60 33 2.0 5.0 0.00 0.00 0.00 92 1006.6
20260906115035 60 30 2.0 5.0 0.00 0.00 0.00 92 1006.8
20260906114534 60 360 3.0 5.0 0.00 0.00 0.00 92 1006.7
20260906114033 60 58 2.0 4.0 0.00 0.00 0.00 92 1006.4
20260906113533 60 58 0.0 3.0 0.00 0.00 0.00 92 1006.5
20260906113033 60 58 1.0 4.0 0.00 0.00 0.00 91 1006.4
20260906112531 60 58 2.0 4.0 0.00 0.00 0.00 91 1006.2
20260906112030 60 59 2.0 4.0 0.00 0.00 0.00 91 1006.2
20260906111530 60 59 3.0 4.0 0.00 0.00 0.00 91 1006.2
20260906111029 61 63 2.0 3.0 0.00 0.00 0.00 91 1006.2
20260906110529 61 60 0.0 4.0 0.00 0.00 0.00 91 1006.1
20260906110028 61 61 2.0 4.0 0.00 0.00 0.00 91 1005.9
20260906105531 61 62 1.0 4.0 0.00 0.00 0.00 90 1005.8
20260906105028 61 61 1.0 4.0 0.00 0.00 0.00 90 1005.9
20260906104527 61 60 1.0 4.0 0.00 0.00 0.00 90 1006.0
20260906104027 61 360 2.0 4.0 0.00 0.00 0.00 89 1005.9
20260906103527 61 360 0.0 2.0 0.00 0.00 0.00 89 1006.0
20260906103026 61 360 0.0 0.0 0.00 0.00 0.00 89 1006.0
20260906102527 61 360 0.0 0.0 0.00 0.00 0.00 89 1006.0
20260906102024 61 360 0.0 0.0 0.00 0.00 0.00 89 1005.9
20260906101524 61 66 0.0 1.0 0.00 0.00 0.00 89 1006.0
20260906101024 61 66 0.0 1.0 0.00 0.00 0.00 89 1006.0
20260906100525 62 65 0.0 1.0 0.00 0.00 0.00 88 1006.0
20260906100023 62 67 0.0 2.0 0.00 0.00 0.00 88 1006.0
20260906095522 62 67 0.0 2.0 0.00 0.00 0.00 88 1006.0
20260906095022 62 65 0.0 2.0 0.00 0.00 0.00 88 1006.1
20260906094524 62 63 0.0 2.0 0.00 0.00 0.00 87 1005.9
20260906094020 62 63 0.0 3.0 0.00 0.00 0.00 87 1005.9
20260906093520 63 360 1.0 5.0 0.00 0.00 0.00 87 1006.0
20260906093029 63 360 2.0 6.0 0.00 0.00 0.00 87 1005.8
20260906092521 63 360 3.0 9.0 0.00 0.00 0.00 86 1005.8
20260906092017 63 360 5.0 11.0 0.00 0.00 0.00 86 1005.7
20260906091515 63 360 6.0 12.0 0.00 0.00 0.00 86 1005.7
20260906091015 64 360 7.0 13.0 0.00 0.00 0.00 85 1005.7
20260906090517 64 59 6.0 13.0 0.00 0.00 0.00 85 1005.6
20260906090012 64 50 5.0 9.0 0.00 0.00 0.00 84 1005.5
20260906085512 64 45 5.0 9.0 0.00 0.00 0.00 83 1005.5
20260906085010 64 360 2.0 10.0 0.00 0.00 0.00 82 1005.3
20260906084514 65 26 5.0 10.0 0.00 0.00 0.00 82 1005.2
20260906084009 65 27 5.0 8.0 0.00 0.00 0.00 80 1005.0
20260906083507 65 360 4.0 10.0 0.00 0.00 0.00 79 1005.0
20260906083007 65 360 6.0 10.0 0.00 0.00 0.00 79 1005.0
20260906082510 65 348 4.0 8.0 0.00 0.00 0.00 77 1005.0
20260906082005 66 348 4.0 9.0 0.00 0.00 0.00 76 1004.9
20260906081503 66 349 5.0 11.0 0.00 0.00 0.00 75 1004.9
20260906081003 66 349 7.0 11.0 0.00 0.00 0.00 74 1005.0
20260906080503 66 351 7.0 11.0 0.00 0.00 0.00 74 1004.9
20260906080001 66 9 5.0 9.0 0.00 0.00 0.00 72 1005.1
20260906075501 66 360 4.0 8.0 0.00 0.00 0.00 71 1005.3
20260906075100 66 15 2.0 8.0 0.00 0.00 0.00 68 1005.3
20260906074601 66 14 4.0 8.0 0.00 0.00 0.00 66 1005.4
20260906074058 66 11 2.0 8.0 0.00 0.00 0.00 63 1005.2
20260906073601 67 9 5.0 8.0 0.00 0.00 0.00 63 1005.3
20260906073057 67 351 2.0 6.0 0.00 0.00 0.00 64 1005.3
20260906072555 68 351 2.0 6.0 0.00 0.00 0.00 64 1005.5
20260906072053 68 351 4.0 6.0 0.00 0.00 0.00 64 1005.3
20260906071552 68 338 0.0 2.0 0.00 0.00 0.00 66 1005.4
20260906071053 69 338 0.0 2.0 0.00 0.00 0.00 66 1005.3
20260906070551 69 338 1.0 2.0 0.00 0.00 0.00 65 1005.2
20260906070050 69 338 0.0 1.0 0.00 0.00 0.00 65 1005.2
20260906065550 69 338 0.0 2.0 0.00 0.00 0.00 65 1005.1
20260906065049 69 338 0.0 4.0 0.00 0.00 0.00 64 1005.1
20260906064548 69 338 1.0 5.0 0.00 0.00 0.00 63 1005.0
20260906064047 70 338 2.0 8.0 0.00 0.00 0.00 61 1004.8
20260906063546 70 336 4.0 8.0 0.00 0.00 0.00 60 1004.9
20260906063046 70 327 5.0 8.0 0.00 0.00 0.00 59 1004.9
20260906062544 70 292 3.0 7.0 0.00 0.00 0.00 59 1004.9
20260906062045 70 288 3.0 7.0 0.00 0.00 0.00 58 1005.0
20260906061543 70 288 3.0 7.0 0.00 0.00 0.00 56 1005.0
20260906061046 70 286 5.0 7.0 0.00 0.00 0.00 56 1005.2
20260906060541 71 281 4.0 5.0 0.00 0.00 0.00 58 1005.2
20260906060050 71 281 3.0 4.0 0.00 0.00 0.00 58 1005.3
20260906055543 71 281 1.0 8.0 0.00 0.00 0.00 56 1005.3
20260906055041 71 280 4.0 8.0 0.00 0.00 0.00 56 1005.2
20260906054539 71 360 5.0 9.0 0.00 0.00 0.00 57 1005.3
20260906054039 71 360 6.0 9.0 0.00 0.00 0.00 57 1005.3
20260906053538 71 243 4.0 8.0 0.00 0.00 0.00 57 1005.4
20260906053039 71 230 3.0 5.0 0.00 0.00 0.00 57 1005.6
20260906052543 71 230 2.0 7.0 0.00 0.00 0.00 57 1005.5
20260906052038 71 229 3.0 9.0 0.00 0.00 0.00 57 1005.4
20260906051542 71 360 4.0 9.0 0.00 0.00 0.00 56 1005.5
20260906051036 72 360 4.0 7.0 0.00 0.00 0.00 56 1005.5
20260906050536 72 175 3.0 5.0 0.00 0.00 0.00 55 1005.2
20260906050036 72 59 0.0 2.0 0.00 0.00 0.00 55 1004.8
20260906045537 72 59 0.0 5.0 0.00 0.00 0.00 55 1004.6
20260906045035 72 59 2.0 5.0 0.00 0.00 0.00 54 1004.6
20260906044536 72 62 3.0 5.0 0.00 0.00 0.00 54 1004.6
20260906044035 73 46 1.0 5.0 0.00 0.00 0.00 54 1004.6
20260906043535 73 55 2.0 5.0 0.00 0.00 0.00 54 1004.5
20260906043036 73 51 2.0 6.0 0.00 0.00 0.00 54 1004.5
20260906042534 73 58 3.0 6.0 0.00 0.00 0.00 53 1004.5
20260906042034 73 60 3.0 5.0 0.00 0.00 0.00 52 1004.5
20260906041541 73 55 2.0 8.0 0.00 0.00 0.00 51 1004.5
20260906041033 73 360 3.0 9.0 0.00 0.00 0.00 50 1004.4
20260906040534 73 360 6.0 9.0 0.00 0.00 0.00 48 1004.3
20260906040038 74 23 6.0 9.0 0.00 0.00 0.00 46 1004.3
20260906035533 74 21 4.0 9.0 0.00 0.00 0.00 44 1004.2
20260906035033 74 360 4.0 9.0 0.00 0.00 0.00 42 1004.3
20260906034535 75 26 6.0 9.0 0.00 0.00 0.00 41 1004.4
20260906034035 76 34 4.0 11.0 0.00 0.00 0.00 39 1004.4
20260906033533 76 44 8.0 11.0 0.00 0.00 0.00 38 1004.2
20260906033034 77 17 4.0 11.0 0.00 0.00 0.00 38 1004.1
20260906032533 77 20 6.0 13.0 0.00 0.00 0.00 37 1004.1
20260906032032 77 13 6.0 13.0 0.00 0.00 0.00 37 1003.9
20260906031532 78 15 7.0 12.0 0.00 0.00 0.00 37 1003.8
20260906031033 78 15 8.0 12.0 0.00 0.00 0.00 37 1003.7
20260906030532 78 13 6.0 13.0 0.00 0.00 0.00 37 1003.7
20260906030032 78 360 8.0 15.0 0.00 0.00 0.00 37 1003.6
20260906025532 78 351 8.0 15.0 0.00 0.00 0.00 37 1003.6
20260906025032 78 360 10.0 14.0 0.00 0.00 0.00 36 1003.5
20260906024532 79 343 10.0 14.0 0.00 0.00 0.00 36 1003.5
20260906024031 79 342 10.0 13.0 0.00 0.00 0.00 36 1003.5
20260906023533 79 14 9.0 16.0 0.00 0.00 0.00 35 1003.5
20260906023035 79 348 10.0 16.0 0.00 0.00 0.00 35 1003.4
20260906022532 78 344 10.0 15.0 0.00 0.00 0.00 36 1003.4
20260906022040 78 360 10.0 14.0 0.00 0.00 0.00 36 1003.3
20260906021531 79 360 9.0 14.0 0.00 0.00 0.00 36 1003.2
20260906021030 79 316 10.0 17.0 0.00 0.00 0.00 35 1003.0
20260906020530 79 360 11.0 17.0 0.00 0.00 0.00 35 1002.9
20260906020031 79 360 12.0 16.0 0.00 0.00 0.00 34 1002.8
20260906015533 80 323 10.0 13.0 0.00 0.00 0.00 34 1002.9
20260906015030 80 360 9.0 13.0 0.00 0.00 0.00 34 1002.8
20260906014534 80 360 8.0 12.0 0.00 0.00 0.00 34 1002.7
20260906014034 81 360 9.0 12.0 0.00 0.00 0.00 33 1002.8
20260906013530 81 360 10.0 12.0 0.00 0.00 0.00 33 1002.7
20260906013030 82 360 8.0 12.0 0.00 0.00 0.00 33 1002.6
20260906012529 82 325 8.0 13.0 0.00 0.00 0.00 32 1002.6
20260906012033 82 360 9.0 13.0 0.00 0.00 0.00 31 1002.5
20260906011529 83 360 8.0 12.0 0.00 0.00 0.00 31 1002.5
20260906011028 84 327 5.0 8.0 0.00 0.00 0.00 31 1002.5
20260906010528 84 327 4.0 8.0 0.00 0.00 0.00 30 1002.4
20260906010028 85 360 4.0 9.0 0.00 0.00 0.00 29 1002.4
20260906005527 86 316 6.0 9.0 0.00 0.00 0.00 28 1002.4
20260906005032 87 360 4.0 8.0 0.00 0.00 0.00 28 1002.3
20260906004529 88 331 3.0 6.0 0.00 0.00 0.00 27 1002.2
20260906004027 89 331 4.0 6.0 0.00 0.00 0.00 27 1002.2
20260906003529 90 330 4.0 8.0 0.00 0.00 0.00 26 1002.2
20260906003028 91 331 4.0 9.0 0.00 0.00 0.00 25 1002.2
20260906002528 92 333 5.0 9.0 0.00 0.00 0.00 24 1002.2
20260906002027 93 350 3.0 8.0 0.00 0.00 0.00 26 1002.1
20260906001526 93 65 2.0 3.0 0.00 0.00 0.00 26 1002.0
20260906001033 93 63 0.0 3.0 0.00 0.00 0.00 25 1002.0
20260906000532 93 65 1.0 5.0 0.00 0.00 0.00 25 1002.0
20260906000027 93 65 3.0 8.0 0.00 0.00 0.00 25 1001.9
20260905235526 93 63 2.0 9.0 0.00 0.00 0.00 25 1001.9
20260905235026 93 72 4.0 9.0 0.00 0.00 0.00 24 1001.9
20260905234625 93 49 3.0 9.0 0.00 0.00 0.00 25 1001.9
20260905234031 93 84 5.0 9.0 0.00 0.00 0.00 24 1002.0
20260905233526 94 70 2.0 12.0 0.00 0.00 0.00 25 1001.9
20260905233025 94 42 4.0 12.0 0.00 0.00 0.00 24 1001.9
20260905232526 94 45 3.0 11.0 0.00 0.00 0.00 24 1001.9
20260905232025 94 59 6.0 13.0 0.00 0.00 0.00 24 1001.9
20260905231525 94 63 7.0 13.0 0.00 0.00 0.00 24 1001.8
20260905231024 94 12 7.0 13.0 0.00 0.00 0.00 24 1001.8
20260905230531 95 34 7.0 11.0 0.00 0.00 0.00 24 1001.8
20260905230024 95 47 6.0 11.0 0.00 0.00 0.00 24 1001.7
20260905225523 95 20 5.0 10.0 0.00 0.00 0.00 23 1001.6
20260905225024 95 257 4.0 9.0 0.00 0.00 0.00 21 1001.6
20260905224523 95 355 1.0 11.0 0.00 0.00 0.00 22 1001.6
20260905224022 95 349 5.0 12.0 0.00 0.00 0.00 21 1001.7
20260905223527 95 360 6.0 12.0 0.00 0.00 0.00 21 1001.7
20260905223023 95 34 4.0 12.0 0.00 0.00 0.00 21 1001.7
20260905222529 95 350 4.0 10.0 0.00 0.00 0.00 21 1001.7
20260905222026 95 40 5.0 10.0 0.00 0.00 0.00 20 1001.8
20260905221532 95 327 4.0 11.0 0.00 0.00 0.00 21 1001.8
20260905221021 95 309 5.0 12.0 0.00 0.00 0.00 21 1001.9
20260905220524 95 333 5.0 10.0 0.00 0.00 0.00 20 1001.9
20260905220018 94 276 5.0 13.0 0.00 0.00 0.00 21 1002.0
20260905215517 94 333 3.0 13.0 0.00 0.00 0.00 20 1002.1
20260905215017 94 292 8.0 13.0 0.00 0.00 0.00 21 1002.2
20260905214516 94 351 8.0 13.0 0.00 0.00 0.00 20 1002.2